Observations for Trim Patrick St
| Time | AQI | Temp °C | Hum % | Pres Pa | CO μg/m³ | H₂S μg/m³ | NO μg/m³ | NO₂ μg/m³ | O₃ μg/m³ | SO₂ μg/m³ | PM1 μg/m³ | PM2.5 μg/m³ | PM10 μg/m³ |
|---|---|---|---|---|---|---|---|---|---|---|---|---|---|
| Friday 28 August 2026 | |||||||||||||
| 06:32 | 3 | 16.2 | 89 | 38,459 | 0.18 | 2.96 | 2.39 | 2.67 | 38.5 | 0 | 13.14 | 20.31 | 22.34 |
| 06:31 | 3 | 16.2 | 89 | 38,459 | 0.19 | 2.02 | 2.41 | 4.15 | 30.65 | 0 | 14 | 18.27 | 20.09 |
| 06:30 | 3 | 16.2 | 89 | 38,459 | 0.2 | 1.87 | 2.4 | 2.82 | 31.61 | 0 | 13.14 | 18.95 | 20.84 |
| 06:29 | 3 | 16.2 | 89 | 38,459 | 0.2 | 2.49 | 2.4 | 4.31 | 29.51 | 0 | 11.43 | 18.27 | 20.09 |
| 06:28 | 3 | 16.2 | 89 | 38,459 | 0.19 | 1.45 | 2.38 | 2.46 | 34.27 | 0 | 14 | 20.31 | 22.34 |
| 06:27 | 3 | 16.2 | 89 | 38,459 | 0.19 | 1.92 | 2.37 | 2.4 | 33.81 | 0 | 13.14 | 19.63 | 21.59 |
| 06:26 | 3 | 16.2 | 89 | 38,459 | 0.19 | 1.89 | 2.38 | 2.18 | 36.07 | 0 | 13.14 | 18.95 | 20.84 |
| 06:25 | 3 | 16.2 | 89 | 38,459 | 0.19 | 1.74 | 2.4 | 1.96 | 37.65 | 0 | 13.14 | 18.27 | 20.09 |
| 06:24 | 3 | 16.2 | 89 | 38,459 | 0.19 | 1.94 | 2.44 | 2.58 | 35.21 | 0 | 14 | 18.28 | 20.1 |
| 06:23 | 3 | 16.2 | 89 | 38,459 | 0.19 | 1.58 | 3.12 | 2.67 | 32.19 | 0 | 13.14 | 19.63 | 21.59 |
| 06:22 | 3 | 16.2 | 89 | 38,459 | 0.19 | 1.29 | 3.14 | 3.52 | 33.58 | 0 | 12.29 | 17.58 | 19.34 |
| 06:21 | 3 | 16.2 | 89 | 38,459 | 0.19 | 1.16 | 3.15 | 7.7 | 30.78 | 0 | 13.14 | 18.95 | 20.84 |
| 06:20 | 3 | 16.2 | 89 | 38,459 | 0.19 | 1.79 | 3 | 28.86 | 17.65 | 0 | 12.29 | 16.9 | 18.59 |
| 06:19 | 3 | 16.2 | 89 | 38,459 | 0.22 | 2.05 | 2.86 | 100.03 | 0 | 0 | 14.86 | 20.31 | 22.34 |
| 06:18 | 3 | 16.2 | 89 | 38,459 | 0.19 | 2.31 | 2.41 | 2.68 | 31.96 | 0 | 11.43 | 18.27 | 20.09 |
| 06:17 | 3 | 16.2 | 89 | 38,459 | 0.19 | 1.81 | 2.38 | 2.36 | 37.29 | 0 | 12.29 | 19.64 | 21.6 |
| 06:16 | 3 | 16.2 | 89 | 38,459 | 0.19 | 1.81 | 2.38 | 2.19 | 38.76 | 0 | 11.43 | 17.6 | 19.35 |
| 06:15 | 3 | 16.2 | 89 | 38,459 | 0.19 | 2.18 | 2.38 | 2.46 | 34.55 | 0 | 10.57 | 17.58 | 19.34 |
| 06:14 | 3 | 16.2 | 89 | 38,459 | 0.18 | 2.34 | 2.36 | 2.83 | 35.41 | 0 | 12.29 | 18.27 | 20.09 |
| 06:13 | 3 | 16.2 | 89 | 38,459 | 0.2 | 1.48 | 2.37 | 1.88 | 37.84 | 0 | 14 | 19.63 | 21.59 |